Time,TemperatureF,DewpointF,PressureIn,WindDirection,WindDirectionDegrees,WindSpeedMPH,WindSpeedGustMPH,Humidity,HourlyPrecipIn,Conditions,Clouds,dailyrainin,SolarRadiationWatts/m^2,SoftwareType,DateUTC
2013-08-29 00:01:00,76.8,73.4,29.94,WSW,243,0.0,2.0,89,0.00,,,0.00,0.0,meteohub,2013-08-29 04:01:00,
2013-08-29 00:02:00,76.8,73.4,29.94,WSW,243,1.0,2.0,89,0.00,,,0.00,0.0,meteohub,2013-08-29 04:02:00,
2013-08-29 00:05:00,76.6,73.4,29.94,WSW,243,1.0,2.0,90,0.00,,,0.00,0.0,meteohub,2013-08-29 04:05:00,
2013-08-29 00:10:00,76.5,73.2,29.94,SSE,156,0.0,2.0,90,0.00,,,0.00,0.0,meteohub,2013-08-29 04:10:00,
2013-08-29 00:11:00,76.5,73.2,29.94,SSE,156,0.0,2.0,90,0.00,,,0.00,0.0,meteohub,2013-08-29 04:11:00,
2013-08-29 00:16:00,76.5,73.2,29.94,SSE,156,0.0,2.0,90,0.00,,,0.00,0.0,meteohub,2013-08-29 04:16:00,
2013-08-29 00:21:00,76.3,73.0,29.94,SSE,156,0.0,3.0,90,0.00,,,0.00,0.0,meteohub,2013-08-29 04:21:00,
2013-08-29 00:26:00,76.3,73.4,29.95,SSE,156,1.0,3.0,91,0.00,,,0.00,0.0,meteohub,2013-08-29 04:26:00,
2013-08-29 00:31:00,76.1,73.2,29.94,ESE,117,3.0,3.0,91,0.00,,,0.00,0.0,meteohub,2013-08-29 04:31:00,
2013-08-29 00:37:00,75.9,73.4,29.94,ESE,118,1.0,3.0,92,0.00,,,0.00,0.0,meteohub,2013-08-29 04:37:00,
2013-08-29 00:42:00,75.7,73.2,29.94,South,183,2.0,3.0,92,0.00,,,0.00,0.0,meteohub,2013-08-29 04:42:00,
2013-08-29 00:47:00,75.7,73.2,29.94,South,189,0.0,3.0,92,0.00,,,0.00,0.0,meteohub,2013-08-29 04:47:00,
2013-08-29 00:52:00,75.6,73.4,29.94,South,189,1.0,3.0,93,0.00,,,0.00,0.0,meteohub,2013-08-29 04:52:00,
2013-08-29 00:57:00,75.6,73.4,29.94,ESE,113,0.0,3.0,93,0.00,,,0.00,0.0,meteohub,2013-08-29 04:57:00,
2013-08-29 01:02:00,75.4,73.2,29.94,ESE,117,1.0,4.0,93,0.00,,,0.00,0.0,meteohub,2013-08-29 05:02:00,
2013-08-29 01:07:00,75.4,73.2,29.94,ESE,117,0.0,4.0,93,0.00,,,0.00,0.0,meteohub,2013-08-29 05:07:00,
2013-08-29 01:12:00,75.2,73.0,29.94,ESE,117,0.0,3.0,93,0.00,,,0.00,0.0,meteohub,2013-08-29 05:12:00,
2013-08-29 01:17:00,75.2,73.0,29.94,ESE,117,0.0,2.0,93,0.00,,,0.00,0.0,meteohub,2013-08-29 05:17:00,
2013-08-29 01:22:00,75.0,72.9,29.94,ESE,117,0.0,1.0,93,0.00,,,0.00,0.0,meteohub,2013-08-29 05:22:00,
2013-08-29 01:27:00,74.8,72.7,29.94,ESE,117,0.0,1.0,93,0.00,,,0.00,0.0,meteohub,2013-08-29 05:27:00,
2013-08-29 01:32:00,74.8,72.7,29.94,ESE,117,0.0,1.0,93,0.00,,,0.00,0.0,meteohub,2013-08-29 05:32:00,
2013-08-29 01:37:00,74.7,72.9,29.94,ESE,117,0.0,1.0,94,0.00,,,0.00,0.0,meteohub,2013-08-29 05:37:00,
2013-08-29 01:42:00,74.5,72.7,29.94,ESE,117,0.0,1.0,94,0.00,,,0.00,0.0,meteohub,2013-08-29 05:42:00,
2013-08-29 01:47:00,74.5,72.7,29.94,ESE,117,0.0,1.0,94,0.00,,,0.00,0.0,meteohub,2013-08-29 05:47:00,
2013-08-29 01:52:00,74.1,72.3,29.94,ESE,117,0.0,1.0,94,0.00,,,0.00,0.0,meteohub,2013-08-29 05:52:00,
2013-08-29 01:57:00,74.1,72.3,29.94,ESE,117,0.0,1.0,94,0.00,,,0.00,0.0,meteohub,2013-08-29 05:57:00,
2013-08-29 02:02:00,73.9,72.1,29.93,ESE,117,0.0,1.0,94,0.00,,,0.00,0.0,meteohub,2013-08-29 06:02:00,
2013-08-29 02:07:00,73.8,72.0,29.93,ESE,117,0.0,1.0,94,0.00,,,0.00,0.0,meteohub,2013-08-29 06:07:00,
2013-08-29 02:12:00,73.8,72.3,29.93,ESE,117,0.0,0.0,95,0.00,,,0.00,0.0,meteohub,2013-08-29 06:12:00,
2013-08-29 02:17:00,73.6,71.8,29.93,ESE,117,0.0,0.0,94,0.00,,,0.00,0.0,meteohub,2013-08-29 06:17:00,
2013-08-29 02:22:00,73.4,71.6,29.93,ESE,117,1.0,0.0,94,0.00,,,0.00,0.0,meteohub,2013-08-29 06:22:00,
2013-08-29 02:27:00,73.2,71.8,29.93,ESE,117,1.0,1.0,95,0.00,,,0.00,0.0,meteohub,2013-08-29 06:27:00,
2013-08-29 02:32:00,73.2,71.8,29.93,East,100,0.0,1.0,95,0.00,,,0.00,0.0,meteohub,2013-08-29 06:32:00,
2013-08-29 02:37:00,73.0,71.6,29.93,East,100,0.0,1.0,95,0.00,,,0.00,0.0,meteohub,2013-08-29 06:37:00,
2013-08-29 02:42:00,73.0,71.6,29.93,East,100,0.0,1.0,95,0.00,,,0.00,0.0,meteohub,2013-08-29 06:42:00,
2013-08-29 02:47:00,72.9,71.4,29.93,East,100,0.0,1.0,95,0.00,,,0.00,0.0,meteohub,2013-08-29 06:47:00,
2013-08-29 02:52:00,72.7,71.2,29.93,East,100,0.0,1.0,95,0.00,,,0.00,0.0,meteohub,2013-08-29 06:52:00,
2013-08-29 02:57:00,72.7,71.2,29.93,East,100,0.0,1.0,95,0.00,,,0.00,0.0,meteohub,2013-08-29 06:57:00,
2013-08-29 03:02:00,72.5,71.1,29.93,East,100,0.0,1.0,95,0.00,,,0.00,0.0,meteohub,2013-08-29 07:02:00,
2013-08-29 03:07:00,72.3,70.9,29.93,East,100,0.0,0.0,95,0.00,,,0.00,0.0,meteohub,2013-08-29 07:07:00,
2013-08-29 03:12:00,72.3,71.1,29.93,East,100,0.0,0.0,96,0.00,,,0.00,0.0,meteohub,2013-08-29 07:12:00,
2013-08-29 03:17:00,72.1,70.7,29.93,East,100,0.0,0.0,95,0.00,,,0.00,0.0,meteohub,2013-08-29 07:17:00,
2013-08-29 03:22:00,72.1,70.7,29.93,East,100,0.0,0.0,95,0.00,,,0.00,0.0,meteohub,2013-08-29 07:22:00,
2013-08-29 03:27:00,72.1,70.7,29.93,East,100,0.0,0.0,95,0.00,,,0.00,0.0,meteohub,2013-08-29 07:27:00,
2013-08-29 03:32:00,72.0,70.5,29.94,East,100,0.0,0.0,95,0.00,,,0.00,0.0,meteohub,2013-08-29 07:32:00,
2013-08-29 03:37:00,72.0,70.7,29.94,East,100,0.0,0.0,96,0.00,,,0.00,0.0,meteohub,2013-08-29 07:37:00,
2013-08-29 03:43:00,71.8,70.5,29.94,East,100,0.0,1.0,96,0.00,,,0.00,0.0,meteohub,2013-08-29 07:43:00,
2013-08-29 03:48:00,71.8,70.5,29.94,East,100,0.0,1.0,96,0.00,,,0.00,0.0,meteohub,2013-08-29 07:48:00,
2013-08-29 03:53:00,71.6,70.3,29.94,East,100,0.0,1.0,96,0.00,,,0.00,0.0,meteohub,2013-08-29 07:53:00,
2013-08-29 03:58:00,71.4,70.2,29.94,East,100,0.0,0.0,96,0.00,,,0.00,0.0,meteohub,2013-08-29 07:58:00,
2013-08-29 04:03:00,71.4,70.2,29.94,East,100,0.0,0.0,96,0.00,,,0.00,0.0,meteohub,2013-08-29 08:03:00,
2013-08-29 04:08:00,71.4,70.2,29.94,East,100,0.0,0.0,96,0.00,,,0.00,0.0,meteohub,2013-08-29 08:08:00,
2013-08-29 04:13:00,71.4,70.5,29.94,East,100,0.0,0.0,97,0.00,,,0.00,0.0,meteohub,2013-08-29 08:13:00,
2013-08-29 04:18:00,71.4,70.5,29.94,East,100,0.0,0.0,97,0.00,,,0.00,0.0,meteohub,2013-08-29 08:18:00,
2013-08-29 04:23:00,71.4,70.5,29.94,East,100,0.0,0.0,97,0.00,,,0.00,0.0,meteohub,2013-08-29 08:23:00,
2013-08-29 04:28:00,71.4,70.5,29.94,East,100,0.0,0.0,97,0.00,,,0.00,0.0,meteohub,2013-08-29 08:28:00,
2013-08-29 04:33:00,71.2,70.3,29.94,East,100,0.0,0.0,97,0.00,,,0.00,0.0,meteohub,2013-08-29 08:33:00,
2013-08-29 04:39:00,71.2,70.3,29.94,East,100,0.0,0.0,97,0.00,,,0.00,0.0,meteohub,2013-08-29 08:39:00,
2013-08-29 04:44:00,71.1,70.2,29.94,East,100,0.0,0.0,97,0.00,,,0.00,0.0,meteohub,2013-08-29 08:44:00,
2013-08-29 04:49:00,71.1,70.2,29.94,East,100,0.0,1.0,97,0.00,,,0.00,0.0,meteohub,2013-08-29 08:49:00,
2013-08-29 04:54:00,70.9,70.0,29.94,East,100,0.0,1.0,97,0.00,,,0.00,0.0,meteohub,2013-08-29 08:54:00,
2013-08-29 04:59:00,70.9,70.0,29.95,East,100,0.0,1.0,97,0.00,,,0.00,0.0,meteohub,2013-08-29 08:59:00,
2013-08-29 05:04:00,70.9,70.0,29.95,East,100,0.0,0.0,97,0.00,,,0.00,0.0,meteohub,2013-08-29 09:04:00,
2013-08-29 05:09:00,70.9,70.0,29.94,East,100,0.0,0.0,97,0.00,,,0.00,0.0,meteohub,2013-08-29 09:09:00,
2013-08-29 05:14:00,70.9,70.0,29.95,North,357,2.0,0.0,97,0.00,,,0.00,0.0,meteohub,2013-08-29 09:14:00,
2013-08-29 05:19:00,70.9,70.0,29.94,North,6,1.0,2.0,97,0.00,,,0.00,0.0,meteohub,2013-08-29 09:19:00,
2013-08-29 05:25:00,71.2,70.7,29.95,NNW,336,0.0,2.0,98,0.00,,,0.00,0.0,meteohub,2013-08-29 09:25:00,
2013-08-29 05:30:00,71.4,70.9,29.94,NNW,336,0.0,3.0,98,0.00,,,0.00,0.0,meteohub,2013-08-29 09:30:00,
2013-08-29 05:35:00,71.8,71.2,29.94,NNW,336,0.0,3.0,98,0.00,,,0.00,0.0,meteohub,2013-08-29 09:35:00,
2013-08-29 05:40:00,71.8,71.2,29.94,NE,48,0.0,3.0,98,0.00,,,0.00,0.0,meteohub,2013-08-29 09:40:00,
2013-08-29 05:45:00,72.0,71.4,29.94,NE,42,1.0,4.0,98,0.00,,,0.00,0.0,meteohub,2013-08-29 09:45:00,
2013-08-29 05:50:00,72.3,72.0,29.95,NNE,26,2.0,4.0,99,0.00,,,0.00,0.0,meteohub,2013-08-29 09:50:00,
2013-08-29 05:55:00,72.7,72.3,29.95,NE,46,0.0,4.0,99,0.00,,,0.00,0.0,meteohub,2013-08-29 09:55:00,
2013-08-29 06:00:00,72.9,72.5,29.95,NE,40,2.0,3.0,99,0.00,,,0.00,0.0,meteohub,2013-08-29 10:00:00,
2013-08-29 06:05:00,72.9,72.5,29.95,NE,39,0.0,4.0,99,0.00,,,0.00,0.0,meteohub,2013-08-29 10:05:00,
2013-08-29 06:10:00,72.9,72.3,29.95,NE,44,0.0,4.0,98,0.00,,,0.00,0.0,meteohub,2013-08-29 10:10:00,
2013-08-29 06:15:00,72.9,72.3,29.94,North,358,1.0,4.0,98,0.00,,,0.00,0.0,meteohub,2013-08-29 10:15:00,
2013-08-29 06:21:00,72.9,72.3,29.95,NNE,30,0.0,3.0,98,0.00,,,0.00,0.0,meteohub,2013-08-29 10:21:00,
2013-08-29 06:26:00,72.9,72.3,29.95,North,9,1.0,3.0,98,0.00,,,0.00,0.0,meteohub,2013-08-29 10:26:00,
2013-08-29 06:31:00,72.9,72.3,29.95,NE,34,1.0,5.0,98,0.00,,,0.00,0.0,meteohub,2013-08-29 10:31:00,
2013-08-29 06:36:00,72.9,72.3,29.95,NNE,32,0.0,5.0,98,0.00,,,0.00,0.0,meteohub,2013-08-29 10:36:00,
2013-08-29 06:41:00,72.7,72.1,29.95,NNE,28,0.0,4.0,98,0.00,,,0.00,0.0,meteohub,2013-08-29 10:41:00,
2013-08-29 06:46:00,72.7,72.1,29.95,NNE,27,1.0,4.0,98,0.00,,,0.00,0.0,meteohub,2013-08-29 10:46:00,
2013-08-29 06:51:00,72.5,72.0,29.95,NNE,27,2.0,4.0,98,0.00,,,0.00,0.0,meteohub,2013-08-29 10:51:00,
2013-08-29 06:56:00,72.3,71.8,29.96,NNE,24,1.0,3.0,98,0.00,,,0.00,0.0,meteohub,2013-08-29 10:56:00,
2013-08-29 07:01:00,72.3,71.8,29.96,NNE,13,0.0,3.0,98,0.00,,,0.00,0.0,meteohub,2013-08-29 11:01:00,
2013-08-29 07:06:00,72.3,71.4,29.96,NNE,32,0.0,3.0,97,0.00,,,0.00,0.0,meteohub,2013-08-29 11:06:00,
2013-08-29 07:11:00,72.1,71.6,29.96,NNE,32,0.0,3.0,98,0.00,,,0.00,7.0,meteohub,2013-08-29 11:11:00,
2013-08-29 07:16:00,72.1,71.6,29.97,NNE,25,0.0,2.0,98,0.00,,,0.00,11.0,meteohub,2013-08-29 11:16:00,
2013-08-29 07:21:00,72.1,71.6,29.97,NNE,25,0.0,2.0,98,0.00,,,0.00,14.0,meteohub,2013-08-29 11:21:00,
2013-08-29 07:26:00,72.0,71.4,29.97,NNE,25,2.0,2.0,98,0.00,,,0.00,19.0,meteohub,2013-08-29 11:26:00,
2013-08-29 07:31:00,72.0,71.4,29.97,NNE,25,1.0,2.0,98,0.00,,,0.00,23.0,meteohub,2013-08-29 11:31:00,
2013-08-29 07:37:00,72.0,71.4,29.97,NNE,26,0.0,4.0,98,0.00,,,0.00,28.0,meteohub,2013-08-29 11:37:00,
2013-08-29 07:42:00,72.0,71.4,29.97,ENE,73,1.0,4.0,98,0.00,,,0.00,33.0,meteohub,2013-08-29 11:42:00,
2013-08-29 07:47:00,72.0,71.4,29.98,ENE,73,0.0,4.0,98,0.00,,,0.00,37.0,meteohub,2013-08-29 11:47:00,
2013-08-29 07:52:00,72.0,71.4,29.98,NE,41,1.0,3.0,98,0.00,,,0.00,40.0,meteohub,2013-08-29 11:52:00,
2013-08-29 07:57:00,72.1,71.6,29.98,NE,51,1.0,3.0,98,0.00,,,0.00,44.0,meteohub,2013-08-29 11:57:00,
2013-08-29 08:02:00,72.3,71.8,29.98,NNE,19,0.0,3.0,98,0.00,,,0.00,49.0,meteohub,2013-08-29 12:02:00,
2013-08-29 08:07:00,72.3,71.8,29.98,NNE,20,1.0,3.0,98,0.00,,,0.00,56.0,meteohub,2013-08-29 12:07:00,
2013-08-29 08:12:00,72.5,72.0,29.98,NE,42,1.0,4.0,98,0.00,,,0.00,100.0,meteohub,2013-08-29 12:12:00,
2013-08-29 08:17:00,72.7,72.1,29.98,NNW,336,1.0,4.0,98,0.00,,,0.00,102.0,meteohub,2013-08-29 12:17:00,
2013-08-29 08:22:00,72.9,72.3,29.99,North,9,1.0,6.0,98,0.00,,,0.00,83.0,meteohub,2013-08-29 12:22:00,
2013-08-29 08:27:00,73.0,72.5,29.99,ENE,73,0.0,6.0,98,0.00,,,0.00,105.0,meteohub,2013-08-29 12:27:00,
2013-08-29 08:32:00,73.2,72.3,29.99,NNE,19,1.0,6.0,97,0.00,,,0.00,121.0,meteohub,2013-08-29 12:32:00,
2013-08-29 08:37:00,73.4,72.1,29.99,NNE,30,1.0,10.0,96,0.00,,,0.00,127.0,meteohub,2013-08-29 12:37:00,
2013-08-29 08:42:00,73.6,72.3,29.99,ENE,59,2.0,10.0,96,0.00,,,0.00,216.0,meteohub,2013-08-29 12:42:00,
2013-08-29 08:47:00,73.8,72.3,29.99,ENE,63,1.0,10.0,95,0.00,,,0.00,193.0,meteohub,2013-08-29 12:47:00,
2013-08-29 08:52:00,73.9,72.5,29.99,NE,36,2.0,8.0,95,0.00,,,0.00,134.0,meteohub,2013-08-29 12:52:00,
2013-08-29 08:57:00,74.1,72.3,29.99,NNE,17,6.0,8.0,94,0.00,,,0.00,155.0,meteohub,2013-08-29 12:57:00,
2013-08-29 09:02:00,74.5,72.3,29.99,ENE,69,7.0,7.0,93,0.00,,,0.00,171.0,meteohub,2013-08-29 13:02:00,
2013-08-29 09:07:00,74.7,72.1,29.99,NNE,20,5.0,7.0,92,0.00,,,0.00,176.0,meteohub,2013-08-29 13:07:00,
2013-08-29 09:12:00,74.8,72.3,29.99,NNE,13,1.0,7.0,92,0.00,,,0.00,167.0,meteohub,2013-08-29 13:12:00,
2013-08-29 09:17:00,75.0,72.5,29.99,NE,44,1.0,7.0,92,0.00,,,0.00,167.0,meteohub,2013-08-29 13:17:00,
2013-08-29 09:22:00,75.2,72.3,29.99,ENE,64,2.0,6.0,91,0.00,,,0.00,178.0,meteohub,2013-08-29 13:22:00,
2013-08-29 09:27:00,75.4,72.5,30.00,East,100,2.0,6.0,91,0.00,,,0.00,171.0,meteohub,2013-08-29 13:27:00,
2013-08-29 09:32:00,75.4,72.3,30.00,East,84,2.0,6.0,90,0.00,,,0.00,146.0,meteohub,2013-08-29 13:32:00,
2013-08-29 09:37:00,75.2,72.3,30.00,East,89,0.0,6.0,91,0.00,,,0.00,156.0,meteohub,2013-08-29 13:37:00,
2013-08-29 09:42:00,75.2,72.1,30.00,ENE,75,0.0,5.0,90,0.00,,,0.00,165.0,meteohub,2013-08-29 13:42:00,
2013-08-29 09:47:00,75.4,72.3,30.00,NE,39,2.0,5.0,90,0.00,,,0.00,200.0,meteohub,2013-08-29 13:47:00,
2013-08-29 09:52:00,75.6,72.5,30.00,North,358,2.0,6.0,90,0.00,,,0.00,209.0,meteohub,2013-08-29 13:52:00,
2013-08-29 09:57:00,75.6,72.1,30.00,ENE,59,3.0,6.0,89,0.00,,,0.00,223.0,meteohub,2013-08-29 13:57:00,
2013-08-29 10:02:00,75.7,72.3,30.00,NE,46,0.0,6.0,89,0.00,,,0.00,241.0,meteohub,2013-08-29 14:02:00,
2013-08-29 10:07:00,76.1,72.7,30.01,ENE,75,3.0,6.0,89,0.00,,,0.00,251.0,meteohub,2013-08-29 14:07:00,
2013-08-29 10:12:00,76.3,72.5,30.00,East,82,0.0,6.0,88,0.00,,,0.00,241.0,meteohub,2013-08-29 14:12:00,
2013-08-29 10:17:00,76.6,72.9,30.00,NNE,17,3.0,5.0,88,0.00,,,0.00,243.0,meteohub,2013-08-29 14:17:00,
2013-08-29 10:22:00,76.8,73.0,30.01,NE,46,3.0,5.0,88,0.00,,,0.00,188.0,meteohub,2013-08-29 14:22:00,
2013-08-29 10:27:00,76.8,72.7,30.01,NE,55,3.0,5.0,87,0.00,,,0.00,221.0,meteohub,2013-08-29 14:27:00,
2013-08-29 10:32:00,76.6,72.5,30.01,East,83,2.0,8.0,87,0.00,,,0.00,190.0,meteohub,2013-08-29 14:32:00,
2013-08-29 10:37:00,76.8,72.7,30.01,NNE,23,1.0,8.0,87,0.00,,,0.00,227.0,meteohub,2013-08-29 14:37:00,
2013-08-29 10:42:00,77.0,72.5,30.01,NNE,25,1.0,6.0,86,0.00,,,0.00,253.0,meteohub,2013-08-29 14:42:00,
2013-08-29 10:47:00,77.2,72.7,30.01,East,79,4.0,6.0,86,0.00,,,0.00,248.0,meteohub,2013-08-29 14:47:00,
2013-08-29 10:52:00,77.4,72.9,30.01,NE,38,1.0,5.0,86,0.00,,,0.00,302.0,meteohub,2013-08-29 14:52:00,
2013-08-29 10:57:00,78.1,73.9,30.01,ESE,102,3.0,5.0,87,0.00,,,0.00,338.0,meteohub,2013-08-29 14:57:00,
2013-08-29 11:02:00,78.6,72.7,30.00,NNW,344,5.0,6.0,82,0.00,,,0.00,258.0,meteohub,2013-08-29 15:02:00,
2013-08-29 11:07:00,79.2,73.2,30.00,NE,48,0.0,6.0,82,0.00,,,0.00,664.0,meteohub,2013-08-29 15:07:00,
2013-08-29 11:12:00,79.3,73.8,30.00,SE,130,2.0,6.0,83,0.00,,,0.00,332.0,meteohub,2013-08-29 15:12:00,
2013-08-29 11:17:00,80.1,73.8,30.00,East,92,1.0,5.0,81,0.00,,,0.00,309.0,meteohub,2013-08-29 15:17:00,
2013-08-29 11:22:00,79.9,73.6,30.00,SSE,151,2.0,5.0,81,0.00,,,0.00,309.0,meteohub,2013-08-29 15:22:00,
2013-08-29 11:27:00,80.2,73.6,30.00,South,173,0.0,4.0,80,0.00,,,0.00,390.0,meteohub,2013-08-29 15:27:00,
2013-08-29 11:32:00,80.4,73.8,30.00,ENE,75,2.0,4.0,80,0.00,,,0.00,334.0,meteohub,2013-08-29 15:32:00,
2013-08-29 11:37:00,80.8,73.9,30.00,NE,36,1.0,4.0,80,0.00,,,0.00,306.0,meteohub,2013-08-29 15:37:00,
2013-08-29 11:42:00,81.3,73.8,30.00,WNW,303,1.0,5.0,78,0.00,,,0.00,427.0,meteohub,2013-08-29 15:42:00,
2013-08-29 11:47:00,81.7,73.4,30.00,ESE,121,4.0,5.0,76,0.00,,,0.00,830.0,meteohub,2013-08-29 15:47:00,
2013-08-29 11:53:00,83.1,74.8,30.00,East,83,1.0,8.0,76,0.00,,,0.00,770.0,meteohub,2013-08-29 15:53:00,
2013-08-29 11:58:00,83.1,74.3,29.99,ESE,102,2.0,8.0,75,0.00,,,0.00,752.0,meteohub,2013-08-29 15:58:00,
2013-08-29 12:03:00,83.5,75.0,29.99,NE,34,3.0,8.0,76,0.00,,,0.00,761.0,meteohub,2013-08-29 16:03:00,
2013-08-29 12:08:00,84.2,74.7,29.99,South,190,3.0,6.0,73,0.00,,,0.00,773.0,meteohub,2013-08-29 16:08:00,
2013-08-29 12:13:00,84.0,74.8,29.99,East,90,3.0,6.0,74,0.00,,,0.00,800.0,meteohub,2013-08-29 16:13:00,
2013-08-29 12:18:00,84.2,73.8,29.99,SE,138,4.0,6.0,71,0.00,,,0.00,786.0,meteohub,2013-08-29 16:18:00,
2013-08-29 12:23:00,83.7,74.1,29.99,NE,36,2.0,6.0,73,0.00,,,0.00,779.0,meteohub,2013-08-29 16:23:00,
2013-08-29 12:28:00,83.5,74.3,29.99,ENE,69,0.0,7.0,74,0.00,,,0.00,861.0,meteohub,2013-08-29 16:28:00,
2013-08-29 12:33:00,83.8,74.7,29.99,East,98,1.0,7.0,74,0.00,,,0.00,867.0,meteohub,2013-08-29 16:33:00,
2013-08-29 12:39:00,83.8,74.3,29.99,East,88,1.0,7.0,73,0.00,,,0.00,847.0,meteohub,2013-08-29 16:39:00,
2013-08-29 12:44:00,83.8,74.7,29.99,North,0,3.0,8.0,74,0.00,,,0.00,353.0,meteohub,2013-08-29 16:44:00,
2013-08-29 12:49:00,83.5,73.9,29.99,East,79,2.0,8.0,73,0.00,,,0.00,329.0,meteohub,2013-08-29 16:49:00,
2013-08-29 12:54:00,83.3,74.1,30.00,ENE,75,1.0,9.0,74,0.00,,,0.00,909.0,meteohub,2013-08-29 16:54:00,
2013-08-29 12:59:00,83.5,73.0,29.99,SE,146,2.0,9.0,71,0.00,,,0.00,401.0,meteohub,2013-08-29 16:59:00,
2013-08-29 13:04:00,84.0,73.6,29.99,NNE,12,3.0,9.0,71,0.00,,,0.00,888.0,meteohub,2013-08-29 17:04:00,
2013-08-29 13:09:00,84.9,73.6,29.99,ENE,67,6.0,8.0,69,0.00,,,0.00,905.0,meteohub,2013-08-29 17:09:00,
2013-08-29 13:14:00,84.9,74.5,29.99,ENE,68,3.0,8.0,71,0.00,,,0.00,907.0,meteohub,2013-08-29 17:14:00,
2013-08-29 13:19:00,84.6,74.1,29.99,ESE,113,1.0,8.0,71,0.00,,,0.00,914.0,meteohub,2013-08-29 17:19:00,
2013-08-29 13:25:00,85.1,74.7,29.99,NNE,33,1.0,7.0,71,0.00,,,0.00,905.0,meteohub,2013-08-29 17:25:00,
2013-08-29 13:30:00,84.9,72.3,29.99,NE,44,2.0,7.0,66,0.00,,,0.00,294.0,meteohub,2013-08-29 17:30:00,
2013-08-29 13:35:00,85.3,73.9,29.99,NE,45,4.0,7.0,69,0.00,,,0.00,914.0,meteohub,2013-08-29 17:35:00,
2013-08-29 13:40:00,84.7,72.5,29.99,North,7,5.0,7.0,67,0.00,,,0.00,246.0,meteohub,2013-08-29 17:40:00,
2013-08-29 13:45:00,83.7,73.6,29.99,NNE,25,4.0,6.0,72,0.00,,,0.00,327.0,meteohub,2013-08-29 17:45:00,
2013-08-29 13:50:00,83.5,72.7,29.99,ENE,78,3.0,8.0,70,0.00,,,0.00,258.0,meteohub,2013-08-29 17:50:00,
2013-08-29 13:55:00,83.7,72.3,29.99,SE,137,3.0,8.0,69,0.00,,,0.00,840.0,meteohub,2013-08-29 17:55:00,
2013-08-29 14:00:00,84.7,73.9,29.99,ENE,58,7.0,7.0,70,0.00,,,0.00,863.0,meteohub,2013-08-29 18:00:00,
2013-08-29 14:05:00,85.8,74.5,29.98,NNW,342,1.0,8.0,69,0.00,,,0.00,752.0,meteohub,2013-08-29 18:05:00,
2013-08-29 14:10:00,86.7,77.0,29.98,ESE,115,3.0,8.0,73,0.00,,,0.00,851.0,meteohub,2013-08-29 18:10:00,
2013-08-29 14:16:00,86.2,73.0,29.98,East,90,3.0,8.0,65,0.00,,,0.00,824.0,meteohub,2013-08-29 18:16:00,
2013-08-29 14:21:00,85.8,73.2,29.98,ENE,67,7.0,8.0,66,0.00,,,0.00,853.0,meteohub,2013-08-29 18:21:00,
2013-08-29 14:26:00,85.8,73.6,29.98,NNE,16,2.0,8.0,67,0.00,,,0.00,882.0,meteohub,2013-08-29 18:26:00,
2013-08-29 14:31:00,86.0,73.2,29.97,East,100,1.0,8.0,66,0.00,,,0.00,278.0,meteohub,2013-08-29 18:31:00,
2013-08-29 14:36:00,85.5,72.9,29.97,North,6,2.0,10.0,66,0.00,,,0.00,933.0,meteohub,2013-08-29 18:36:00,
2013-08-29 14:41:00,86.0,73.2,29.97,ENE,68,3.0,10.0,66,0.00,,,0.00,851.0,meteohub,2013-08-29 18:41:00,
2013-08-29 14:46:00,85.5,72.3,29.97,North,8,2.0,10.0,65,0.00,,,0.00,397.0,meteohub,2013-08-29 18:46:00,
2013-08-29 14:51:00,85.6,72.5,29.96,ENE,63,5.0,10.0,65,0.00,,,0.00,823.0,meteohub,2013-08-29 18:51:00,
2013-08-29 14:56:00,86.2,72.5,29.96,SSE,156,3.0,10.0,64,0.00,,,0.00,336.0,meteohub,2013-08-29 18:56:00,
2013-08-29 15:01:00,86.2,71.6,29.96,SE,132,0.0,8.0,62,0.00,,,0.00,260.0,meteohub,2013-08-29 19:01:00,
2013-08-29 15:06:00,86.2,73.9,29.96,NNE,31,2.0,8.0,67,0.00,,,0.00,858.0,meteohub,2013-08-29 19:06:00,
2013-08-29 15:12:00,86.2,73.4,29.96,NNE,32,2.0,7.0,66,0.00,,,0.00,858.0,meteohub,2013-08-29 19:12:00,
2013-08-29 15:17:00,85.6,73.0,29.96,ESE,118,1.0,9.0,66,0.00,,,0.00,158.0,meteohub,2013-08-29 19:17:00,
2013-08-29 15:22:00,85.1,72.5,29.96,NW,315,2.0,9.0,66,0.00,,,0.00,271.0,meteohub,2013-08-29 19:22:00,
2013-08-29 15:27:00,85.1,72.0,29.96,NNE,28,5.0,9.0,65,0.00,,,0.00,823.0,meteohub,2013-08-29 19:27:00,
2013-08-29 15:32:00,86.2,72.1,29.96,East,98,4.0,6.0,63,0.00,,,0.00,819.0,meteohub,2013-08-29 19:32:00,
2013-08-29 15:37:00,86.2,71.6,29.96,NNE,29,4.0,6.0,62,0.00,,,0.00,211.0,meteohub,2013-08-29 19:37:00,
2013-08-29 15:42:00,85.3,71.8,29.96,NE,51,1.0,8.0,64,0.00,,,0.00,223.0,meteohub,2013-08-29 19:42:00,
2013-08-29 15:47:00,85.3,71.8,29.96,ENE,65,2.0,8.0,64,0.00,,,0.00,816.0,meteohub,2013-08-29 19:47:00,
2013-08-29 15:52:00,85.8,72.7,29.96,ENE,67,1.0,8.0,65,0.00,,,0.00,700.0,meteohub,2013-08-29 19:52:00,
2013-08-29 15:57:00,86.2,71.1,29.95,NE,42,1.0,5.0,61,0.00,,,0.00,738.0,meteohub,2013-08-29 19:57:00,
2013-08-29 16:02:00,86.5,72.5,29.95,East,81,3.0,7.0,63,0.00,,,0.00,772.0,meteohub,2013-08-29 20:02:00,
2013-08-29 16:07:00,87.3,70.7,29.95,ESE,121,5.0,7.0,58,0.00,,,0.00,715.0,meteohub,2013-08-29 20:07:00,
2013-08-29 16:12:00,86.5,72.0,29.95,ENE,61,3.0,8.0,62,0.00,,,0.00,167.0,meteohub,2013-08-29 20:12:00,
2013-08-29 16:17:00,85.5,71.4,29.95,NNE,12,2.0,8.0,63,0.00,,,0.00,141.0,meteohub,2013-08-29 20:17:00,
2013-08-29 16:22:00,84.9,71.8,29.95,NE,50,1.0,8.0,65,0.00,,,0.00,624.0,meteohub,2013-08-29 20:22:00,
2013-08-29 16:27:00,86.4,72.7,29.95,NW,320,0.0,7.0,64,0.00,,,0.00,619.0,meteohub,2013-08-29 20:27:00,
2013-08-29 16:32:00,87.1,72.0,29.94,ENE,75,5.0,7.0,61,0.00,,,0.00,643.0,meteohub,2013-08-29 20:32:00,
2013-08-29 16:37:00,87.6,72.0,29.94,North,355,2.0,7.0,60,0.00,,,0.00,694.0,meteohub,2013-08-29 20:37:00,
2013-08-29 16:42:00,87.3,72.1,29.94,NE,50,3.0,9.0,61,0.00,,,0.00,515.0,meteohub,2013-08-29 20:42:00,
2013-08-29 16:47:00,86.5,71.1,29.95,ENE,61,3.0,9.0,60,0.00,,,0.00,515.0,meteohub,2013-08-29 20:47:00,
2013-08-29 16:52:00,85.6,71.6,29.95,North,5,2.0,9.0,63,0.00,,,0.00,162.0,meteohub,2013-08-29 20:52:00,
2013-08-29 16:57:00,85.3,71.2,29.95,NE,43,2.0,9.0,63,0.00,,,0.00,123.0,meteohub,2013-08-29 20:57:00,
2013-08-29 17:02:00,85.3,71.2,29.95,ENE,64,0.0,6.0,63,0.00,,,0.00,524.0,meteohub,2013-08-29 21:02:00,
2013-08-29 17:07:00,86.7,71.6,29.94,ESE,115,4.0,5.0,61,0.00,,,0.00,582.0,meteohub,2013-08-29 21:07:00,
2013-08-29 17:12:00,86.9,71.8,29.94,ENE,67,2.0,8.0,61,0.00,,,0.00,559.0,meteohub,2013-08-29 21:12:00,
2013-08-29 17:17:00,86.7,71.6,29.94,North,359,1.0,8.0,61,0.00,,,0.00,234.0,meteohub,2013-08-29 21:17:00,
2013-08-29 17:22:00,85.8,70.9,29.94,NE,48,0.0,8.0,61,0.00,,,0.00,162.0,meteohub,2013-08-29 21:22:00,
2013-08-29 17:27:00,84.9,70.9,29.94,ESE,109,3.0,7.0,63,0.00,,,0.00,134.0,meteohub,2013-08-29 21:27:00,
2013-08-29 17:32:00,84.2,71.6,29.95,NE,39,2.0,7.0,66,0.00,,,0.00,125.0,meteohub,2013-08-29 21:32:00,
2013-08-29 17:37:00,84.7,71.6,29.94,NE,36,2.0,6.0,65,0.00,,,0.00,404.0,meteohub,2013-08-29 21:37:00,
2013-08-29 17:42:00,85.6,71.6,29.94,NE,37,4.0,5.0,63,0.00,,,0.00,392.0,meteohub,2013-08-29 21:42:00,
2013-08-29 17:47:00,85.6,71.1,29.94,NE,55,5.0,7.0,62,0.00,,,0.00,374.0,meteohub,2013-08-29 21:47:00,
2013-08-29 17:52:00,85.8,71.2,29.94,ESE,112,3.0,8.0,62,0.00,,,0.00,371.0,meteohub,2013-08-29 21:52:00,
2013-08-29 17:57:00,86.2,72.1,29.94,ENE,63,4.0,9.0,63,0.00,,,0.00,360.0,meteohub,2013-08-29 21:57:00,
2013-08-29 18:02:00,85.3,71.8,29.94,NE,45,7.0,9.0,64,0.00,,,0.00,100.0,meteohub,2013-08-29 22:02:00,
2013-08-29 18:07:00,84.6,71.4,29.94,NE,37,3.0,9.0,65,0.00,,,0.00,76.0,meteohub,2013-08-29 22:07:00,
2013-08-29 18:12:00,83.5,71.4,29.94,ENE,66,2.0,9.0,67,0.00,,,0.00,283.0,meteohub,2013-08-29 22:12:00,
2013-08-29 18:17:00,83.8,72.1,29.94,NE,43,1.0,9.0,68,0.00,,,0.00,271.0,meteohub,2013-08-29 22:17:00,
2013-08-29 18:22:00,84.4,71.8,29.94,ENE,65,6.0,9.0,66,0.00,,,0.00,255.0,meteohub,2013-08-29 22:22:00,
2013-08-29 18:27:00,84.4,71.8,29.94,East,90,4.0,8.0,66,0.00,,,0.00,237.0,meteohub,2013-08-29 22:27:00,
2013-08-29 18:32:00,84.0,72.0,29.94,ENE,65,3.0,8.0,67,0.00,,,0.00,211.0,meteohub,2013-08-29 22:32:00,
2013-08-29 18:37:00,84.0,71.4,29.94,SE,138,2.0,8.0,66,0.00,,,0.00,202.0,meteohub,2013-08-29 22:37:00,
2013-08-29 18:42:00,83.7,71.6,29.94,NNW,333,3.0,10.0,67,0.00,,,0.00,190.0,meteohub,2013-08-29 22:42:00,
2013-08-29 18:47:00,83.7,72.0,29.94,ENE,65,0.0,10.0,68,0.00,,,0.00,167.0,meteohub,2013-08-29 22:47:00,
2013-08-29 18:53:00,83.5,71.8,29.94,NE,40,3.0,10.0,68,0.00,,,0.00,160.0,meteohub,2013-08-29 22:53:00,
2013-08-29 18:58:00,83.1,71.4,29.94,ENE,77,1.0,7.0,68,0.00,,,0.00,142.0,meteohub,2013-08-29 22:58:00,
2013-08-29 19:03:00,82.9,71.2,29.94,East,81,0.0,7.0,68,0.00,,,0.00,121.0,meteohub,2013-08-29 23:03:00,
2013-08-29 19:08:00,82.8,71.6,29.94,East,88,3.0,6.0,69,0.00,,,0.00,113.0,meteohub,2013-08-29 23:08:00,
2013-08-29 19:13:00,82.6,70.9,29.94,NE,46,3.0,6.0,68,0.00,,,0.00,95.0,meteohub,2013-08-29 23:13:00,
2013-08-29 19:18:00,82.2,71.1,29.95,ENE,69,4.0,6.0,69,0.00,,,0.00,83.0,meteohub,2013-08-29 23:18:00,
2013-08-29 19:23:00,82.0,70.9,29.95,ENE,63,4.0,7.0,69,0.00,,,0.00,70.0,meteohub,2013-08-29 23:23:00,
2013-08-29 19:28:00,81.9,71.1,29.95,ENE,65,0.0,7.0,70,0.00,,,0.00,46.0,meteohub,2013-08-29 23:28:00,
2013-08-29 19:34:00,81.7,70.5,29.95,East,86,2.0,5.0,69,0.00,,,0.00,47.0,meteohub,2013-08-29 23:34:00,
2013-08-29 19:39:00,81.5,70.7,29.95,East,88,0.0,5.0,70,0.00,,,0.00,32.0,meteohub,2013-08-29 23:39:00,
2013-08-29 19:44:00,81.1,70.3,29.95,East,84,2.0,5.0,70,0.00,,,0.00,26.0,meteohub,2013-08-29 23:44:00,
2013-08-29 19:49:00,81.0,70.7,29.96,ESE,113,0.0,6.0,71,0.00,,,0.00,21.0,meteohub,2013-08-29 23:49:00,
2013-08-29 19:54:00,80.8,70.9,29.96,ENE,75,0.0,6.0,72,0.00,,,0.00,16.0,meteohub,2013-08-29 23:54:00,
2013-08-29 19:59:00,80.4,70.9,29.96,SE,140,1.0,6.0,73,0.00,,,0.00,12.0,meteohub,2013-08-29 23:59:00,
2013-08-29 20:04:00,80.2,70.9,29.96,ENE,63,0.0,4.0,73,0.00,,,0.00,7.0,meteohub,2013-08-30 00:04:00,
2013-08-29 20:10:00,79.9,70.9,29.96,ENE,63,0.0,3.0,74,0.00,,,0.00,0.0,meteohub,2013-08-30 00:10:00,
2013-08-29 20:15:00,79.5,70.5,29.96,East,90,0.0,3.0,74,0.00,,,0.00,0.0,meteohub,2013-08-30 00:15:00,
2013-08-29 20:20:00,79.3,70.7,29.96,East,88,0.0,2.0,75,0.00,,,0.00,0.0,meteohub,2013-08-30 00:20:00,
2013-08-29 20:25:00,79.0,70.3,29.97,East,96,1.0,2.0,75,0.00,,,0.00,0.0,meteohub,2013-08-30 00:25:00,
2013-08-29 20:30:00,78.6,70.3,29.97,East,100,0.0,2.0,76,0.00,,,0.00,0.0,meteohub,2013-08-30 00:30:00,
2013-08-29 20:35:00,78.4,70.7,29.97,ESE,102,1.0,3.0,77,0.00,,,0.00,0.0,meteohub,2013-08-30 00:35:00,
2013-08-29 20:41:00,78.3,70.5,29.97,ENE,63,1.0,4.0,77,0.00,,,0.00,0.0,meteohub,2013-08-30 00:41:00,
2013-08-29 20:46:00,78.1,70.7,29.97,East,84,0.0,4.0,78,0.00,,,0.00,0.0,meteohub,2013-08-30 00:46:00,
2013-08-29 20:51:00,77.9,70.5,29.97,East,94,0.0,3.0,78,0.00,,,0.00,0.0,meteohub,2013-08-30 00:51:00,
2013-08-29 20:56:00,77.7,70.7,29.97,ENE,77,1.0,3.0,79,0.00,,,0.00,0.0,meteohub,2013-08-30 00:56:00,
2013-08-29 21:01:00,77.5,70.5,29.97,ENE,67,0.0,3.0,79,0.00,,,0.00,0.0,meteohub,2013-08-30 01:01:00,
2013-08-29 21:06:00,77.2,70.5,29.98,ENE,72,1.0,4.0,80,0.00,,,0.00,0.0,meteohub,2013-08-30 01:06:00,
2013-08-29 21:11:00,77.0,70.3,29.98,East,90,2.0,4.0,80,0.00,,,0.00,0.0,meteohub,2013-08-30 01:11:00,
2013-08-29 21:16:00,76.8,70.5,29.98,East,82,0.0,3.0,81,0.00,,,0.00,0.0,meteohub,2013-08-30 01:16:00,
2013-08-29 21:21:00,76.6,70.3,29.98,ENE,66,0.0,4.0,81,0.00,,,0.00,0.0,meteohub,2013-08-30 01:21:00,
2013-08-29 21:27:00,76.3,70.3,29.98,ENE,65,0.0,4.0,82,0.00,,,0.00,0.0,meteohub,2013-08-30 01:27:00,
2013-08-29 21:32:00,76.3,70.3,29.99,ENE,62,0.0,4.0,82,0.00,,,0.00,0.0,meteohub,2013-08-30 01:32:00,
2013-08-29 21:37:00,75.9,70.0,29.99,ENE,63,1.0,3.0,82,0.00,,,0.00,0.0,meteohub,2013-08-30 01:37:00,
2013-08-29 21:42:00,75.7,70.2,29.99,ENE,63,0.0,3.0,83,0.00,,,0.00,0.0,meteohub,2013-08-30 01:42:00,
2013-08-29 21:47:00,75.6,70.0,29.99,ESE,108,0.0,3.0,83,0.00,,,0.00,0.0,meteohub,2013-08-30 01:47:00,
2013-08-29 21:52:00,75.4,70.2,29.99,East,92,1.0,2.0,84,0.00,,,0.00,0.0,meteohub,2013-08-30 01:52:00,
2013-08-29 21:57:00,75.2,70.0,29.99,East,79,1.0,3.0,84,0.00,,,0.00,0.0,meteohub,2013-08-30 01:57:00,
2013-08-29 22:03:00,75.0,70.2,29.99,ENE,64,1.0,3.0,85,0.00,,,0.00,0.0,meteohub,2013-08-30 02:03:00,
2013-08-29 22:08:00,74.8,70.0,29.99,ENE,74,1.0,4.0,85,0.00,,,0.00,0.0,meteohub,2013-08-30 02:08:00,
2013-08-29 22:13:00,74.7,69.8,29.99,ENE,71,0.0,4.0,85,0.00,,,0.00,0.0,meteohub,2013-08-30 02:13:00,
2013-08-29 22:18:00,74.7,69.8,29.99,East,88,1.0,4.0,85,0.00,,,0.00,0.0,meteohub,2013-08-30 02:18:00,
2013-08-29 22:23:00,74.5,70.0,29.99,East,99,0.0,4.0,86,0.00,,,0.00,0.0,meteohub,2013-08-30 02:23:00,
2013-08-29 22:28:00,74.3,69.8,29.99,East,99,0.0,3.0,86,0.00,,,0.00,0.0,meteohub,2013-08-30 02:28:00,
2013-08-29 22:33:00,73.9,69.8,29.99,East,99,0.0,3.0,87,0.00,,,0.00,0.0,meteohub,2013-08-30 02:33:00,
2013-08-29 22:38:00,73.8,69.6,29.99,ESE,102,0.0,3.0,87,0.00,,,0.00,0.0,meteohub,2013-08-30 02:38:00,
2013-08-29 22:44:00,73.6,69.4,29.99,East,95,0.0,2.0,87,0.00,,,0.00,0.0,meteohub,2013-08-30 02:44:00,
2013-08-29 22:49:00,73.2,69.4,29.99,East,94,0.0,2.0,88,0.00,,,0.00,0.0,meteohub,2013-08-30 02:49:00,
2013-08-29 22:54:00,72.9,69.1,29.99,East,94,0.0,2.0,88,0.00,,,0.00,0.0,meteohub,2013-08-30 02:54:00,
2013-08-29 22:59:00,72.5,68.7,29.99,East,94,0.0,1.0,88,0.00,,,0.00,0.0,meteohub,2013-08-30 02:59:00,
2013-08-29 23:04:00,72.1,68.7,29.99,East,94,0.0,1.0,89,0.00,,,0.00,0.0,meteohub,2013-08-30 03:04:00,
2013-08-29 23:10:00,71.8,68.7,29.99,SE,133,0.0,2.0,90,0.00,,,0.00,0.0,meteohub,2013-08-30 03:10:00,
2013-08-29 23:15:00,71.6,68.9,29.99,ESE,115,0.0,2.0,91,0.00,,,0.00,0.0,meteohub,2013-08-30 03:15:00,
2013-08-29 23:20:00,71.2,68.5,29.99,ESE,115,0.0,2.0,91,0.00,,,0.00,0.0,meteohub,2013-08-30 03:20:00,
2013-08-29 23:25:00,71.1,68.5,29.99,ESE,115,0.0,2.0,92,0.00,,,0.00,0.0,meteohub,2013-08-30 03:25:00,
2013-08-29 23:30:00,70.9,68.4,29.99,ESE,115,0.0,2.0,92,0.00,,,0.00,0.0,meteohub,2013-08-30 03:30:00,
2013-08-29 23:35:00,70.7,68.2,29.99,ESE,115,0.0,2.0,92,0.00,,,0.00,0.0,meteohub,2013-08-30 03:35:00,
2013-08-29 23:40:00,70.5,68.4,29.99,ESE,115,0.0,1.0,93,0.00,,,0.00,0.0,meteohub,2013-08-30 03:40:00,
2013-08-29 23:46:00,70.3,68.2,29.99,ESE,115,0.0,1.0,93,0.00,,,0.00,0.0,meteohub,2013-08-30 03:46:00,
2013-08-29 23:51:00,70.3,68.5,29.99,East,89,1.0,1.0,94,0.00,,,0.00,0.0,meteohub,2013-08-30 03:51:00,
2013-08-29 23:56:00,70.3,68.5,29.99,East,89,0.0,3.0,94,0.00,,,0.00,0.0,meteohub,2013-08-30 03:56:00,